Location: Proctor
(47.8934°N, 114.3048°W)
Time: 11:36:03
(UTC+00:00)

AIST 2D - Pass Details

Date: 30 June 2022
Orbit: 433 x 444 km, 97.0° (Epoch: 09 August)

Event Time Altitude Azimuth Distance (km) Brightness Sun altitude
Rises 05:37:56 0° 7° (N) 2,426 ? -13.8°
Reaches altitude 10° 05:39:59 10° 2° (N) 1,554 ? -13.9°
Maximum altitude 05:43:13 49° 287° (WNW) 572 ? -14.2°
Enters shadow 05:46:13 11° 212° (SSW) 1,462 ? -14.4°
